Flag for Colombia Weather past 2 weeks in Bogota, Colombia

Now
70 °F

Broken clouds.


Feels Like: 70 °F
Forecast: 49 / 64 °F
Wind: 3 mph from Southwest

Location: Bogota / Eldorado

Current Time: Mar 28, 2015 at 2:12:20 PM

Latest Report: Mar 28, 2015 at 2:00 PM


Visibility: N/A

Pressure: 30.32 "Hg

Humidity: 43%

Dew point: 46 °F

Location of BogotaLocation

Historic Weather in Bogota — Graph

°F

Bogota temperature yesterday

Maximum temperature yesterday: 68 °F (at 4:00 PM)
Minimum temperature yesterday: 48 °F (at 1:00 AM)
Average temperature yesterday: 58 °F

Past Weeks' High & Low Weather Summary

 TemperatureHumidityPressure
High73 °F (Mar 14, 8:00 PM)100% (Mar 18, 5:00 AM)30.44 "Hg (Mar 18, 5:00 AM)
Low41 °F (Mar 22, 5:00 AM)36% (Mar 15, 12:00 PM)30.16 "Hg (Mar 13, 4:00 PM)
Average58 °F78%30.33 "Hg
* Reported Mar 13 1:00 PM — Mar 28 1:00 PM, Bogota, Weather by CustomWeather, © 2015

Note: Actual official high and low records may vary slightly from our data, if they occured in-between our weather recording intervals... More about our weather records

Advertising

Bogota weather history for previous 24 hours

 ConditionsComfort  
Time TempWeatherWind HumidityBarometerVisibility
1:00 PM
Sat, Mar 28
66 °FBroken clouds.3 mph56%30.37 "HgN/A
12:00 PM63 °FBroken clouds.7 mph64%30.40 "HgN/A
11:00 AM64 °FBroken clouds.5 mph60%30.42 "HgN/A
10:00 AM61 °FBroken clouds.6 mph68%30.43 "HgN/A
9:00 AM55 °FPartly sunny.5 mph88%30.43 "Hg5 mi
8:00 AM55 °FPartly sunny.7 mph82%30.40 "Hg5 mi
7:00 AM52 °FPartly sunny.3 mph88%30.39 "Hg5 mi
6:00 AM48 °FPartly sunny.3 mph94%30.38 "HgN/A
5:00 AM46 °FPassing clouds.6 mph93%30.37 "Hg4 mi
4:00 AM45 °FSnow. Overcast.5 mph93%30.35 "HgN/A
3:00 AM48 °FSnow. Overcast.2 mph94%30.38 "HgN/A
2:00 AM50 °FPassing clouds.3 mph88%30.37 "HgN/A
1:00 AM52 °FPassing clouds.3 mph82%30.40 "HgN/A
12:00 AM54 °FPassing clouds.7 mph77%30.42 "HgN/A
11:00 PM
Fri, Mar 27
54 °FPassing clouds.7 mph82%30.43 "HgN/A
10:00 PM55 °FPassing clouds.7 mph77%30.42 "HgN/A
9:00 PM59 °FPassing clouds.7 mph68%30.40 "HgN/A
8:00 PM61 °FPassing clouds.5 mph59%30.36 "HgN/A
7:00 PM61 °FPassing clouds.8 mph59%30.33 "HgN/A
6:00 PM64 °FScattered clouds.7 mph52%30.29 "HgN/A
5:00 PM66 °FScattered clouds.8 mph49%30.27 "HgN/A
4:00 PM68 °FScattered clouds.9 mph46%30.27 "HgN/A
3:00 PM66 °FScattered clouds.7 mph46%30.30 "HgN/A
2:00 PM64 °FPartly sunny.10 mph49%30.33 "HgN/A
Weather by CustomWeather, © 2015

See weather overviewHow to use our weather pages